,,PA_Meas_PMT16A,,PR_Meas_QMR101_102,,RH_Meas_QMH101,,SR_Meas_QMS101,,TA_Meas_QMH101,,GenWind,,GenWind,
time,status,PA,status,PR,status,RH,status,SR,status,TA,status,DirAvg,status,SpdAvg,
2010-08-23, 00:00:04,VALID,916.719,VALID,0,VALID,95.9102,VALID,0,VALID,20.4813,VALID,134,VALID,1.11289,
2010-08-23, 00:01:04,VALID,916.736,VALID,0,VALID,95.8721,VALID,0,VALID,20.4603,VALID,134,VALID,1.1543,
2010-08-23, 00:02:04,VALID,916.707,VALID,0,VALID,95.8568,VALID,0,VALID,20.4813,VALID,134,VALID,1.27109,
2010-08-23, 00:03:04,VALID,916.692,VALID,0,VALID,95.8111,VALID,0,VALID,20.4813,VALID,134,VALID,1.21406,
2010-08-23, 00:04:04,VALID,916.706,VALID,0,VALID,95.7577,VALID,0,VALID,20.4813,VALID,134,VALID,0.958984,
2010-08-23, 00:05:04,VALID,916.666,VALID,0,VALID,95.6891,VALID,0,VALID,20.4618,VALID,134,VALID,0.967578,
2010-08-23, 00:06:04,VALID,916.653,VALID,0,VALID,95.6586,VALID,0,VALID,20.4603,VALID,134,VALID,0.693359,
2010-08-23, 00:07:04,VALID,916.647,VALID,0,VALID,95.6662,VALID,0,VALID,20.4813,VALID,134,VALID,1.03555,
2010-08-23, 00:08:04,VALID,916.661,VALID,0,VALID,95.6357,VALID,0,VALID,20.4618,VALID,134,VALID,0.875,
2010-08-23, 00:09:04,VALID,916.651,VALID,0,VALID,95.6815,VALID,0,VALID,20.4423,VALID,134,VALID,0.934375,
2010-08-23, 00:10:04,VALID,916.634,VALID,0,VALID,95.7349,VALID,0,VALID,20.4408,VALID,134,VALID,0.9875,
2010-08-23, 00:11:04,VALID,916.646,VALID,0,VALID,95.7577,VALID,0,VALID,20.4408,VALID,134,VALID,1.56133,
2010-08-23, 00:12:04,VALID,916.619,VALID,0,VALID,95.7654,VALID,0,VALID,20.4618,VALID,134,VALID,0.851563,
2010-08-23, 00:13:04,VALID,916.58,VALID,0,VALID,95.7654,VALID,0,VALID,20.4408,VALID,134,VALID,0.914063,
2010-08-23, 00:14:04,VALID,916.574,VALID,0,VALID,95.7349,VALID,0,VALID,20.4423,VALID,134,VALID,0.998438,
2010-08-23, 00:15:04,VALID,916.557,VALID,0,VALID,95.7044,VALID,0,VALID,20.4423,VALID,134,VALID,0.556641,
2010-08-23, 00:16:04,VALID,916.547,VALID,0,VALID,95.7501,VALID,0,VALID,20.4423,VALID,134,VALID,0.557031,
2010-08-23, 00:17:04,VALID,916.553,VALID,0,VALID,95.8035,VALID,0,VALID,20.4618,VALID,134,VALID,1.02773,
2010-08-23, 00:18:04,VALID,916.55,VALID,0,VALID,95.8035,VALID,0,VALID,20.4618,VALID,135,VALID,0.944922,
2010-08-23, 00:19:04,VALID,916.529,VALID,0,VALID,95.7806,VALID,0,VALID,20.4423,VALID,135,VALID,0.932422,
2010-08-23, 00:20:04,VALID,916.51,VALID,0,VALID,95.8035,VALID,0,VALID,20.4423,VALID,135,VALID,1.00195,
2010-08-23, 00:21:04,VALID,916.513,VALID,0,VALID,95.8416,VALID,0,VALID,20.4228,VALID,135,VALID,0.738281,
2010-08-23, 00:22:04,VALID,916.509,VALID,0,VALID,95.895,VALID,0,VALID,20.4033,VALID,135,VALID,0.748047,
2010-08-23, 00:23:04,VALID,916.479,VALID,0,VALID,95.9102,VALID,0,VALID,20.4228,VALID,135,VALID,0.867969,
2010-08-23, 00:24:04,VALID,916.474,VALID,0,VALID,95.9636,VALID,0,VALID,20.4033,VALID,135,VALID,0.822266,
2010-08-23, 00:25:04,VALID,916.461,VALID,0,VALID,96.0093,VALID,0,VALID,20.4033,VALID,135,VALID,0.521094,
2010-08-23, 00:26:04,VALID,916.451,VALID,0,VALID,96.0322,VALID,0,VALID,20.4423,VALID,135,VALID,0.552734,
2010-08-23, 00:27:04,VALID,916.432,VALID,0,VALID,96.0017,VALID,0,VALID,20.4033,VALID,135,VALID,0.817578,
2010-08-23, 00:28:04,VALID,916.441,VALID,0,VALID,96.1008,VALID,0,VALID,20.3823,VALID,135,VALID,0.978125,
2010-08-23, 00:29:04,VALID,916.433,VALID,0,VALID,96.0779,VALID,0,VALID,20.4033,VALID,135,VALID,0.582422,
2010-08-23, 00:30:04,VALID,916.424,VALID,0,VALID,96.0779,VALID,0,VALID,20.4033,VALID,135,VALID,0.539453,
2010-08-23, 00:31:04,VALID,916.446,VALID,0,VALID,96.055,VALID,0,VALID,20.3628,VALID,135,VALID,0.450391,
2010-08-23, 00:32:04,VALID,916.48,VALID,0,VALID,96.1008,VALID,0.107441,VALID,20.4018,VALID,135,VALID,0.320313,
2010-08-23, 00:33:04,VALID,916.45,VALID,0,VALID,96.1236,VALID,0,VALID,20.4228,VALID,135,VALID,0.382422,
2010-08-23, 00:34:04,VALID,916.474,VALID,0,VALID,96.1236,VALID,0.107441,VALID,20.4213,VALID,135,VALID,0.149609,
2010-08-23, 00:35:04,VALID,916.463,VALID,0,VALID,96.116,VALID,0,VALID,20.4423,VALID,135,VALID,0.194141,
2010-08-23, 00:36:04,VALID,916.465,VALID,0,VALID,96.0932,VALID,0.107441,VALID,20.4408,VALID,135,VALID,0,
2010-08-23, 00:37:04,VALID,916.405,VALID,0,VALID,96.0627,VALID,0,VALID,20.4408,VALID,135,VALID,0.220703,
2010-08-23, 00:38:04,VALID,916.395,VALID,0,VALID,95.9941,VALID,0,VALID,20.4423,VALID,135,VALID,0,
2010-08-23, 00:39:04,VALID,916.373,VALID,0,VALID,95.9483,VALID,0,VALID,20.4423,VALID,135,VALID,0.189063,
2010-08-23, 00:40:04,VALID,916.36,VALID,0,VALID,95.895,VALID,0,VALID,20.4213,VALID,135,VALID,0,
2010-08-23, 00:41:04,VALID,916.386,VALID,0,VALID,95.834,VALID,0,VALID,20.4423,VALID,135,VALID,0,
2010-08-23, 00:42:04,VALID,916.376,VALID,0,VALID,95.7196,VALID,0,VALID,20.4423,VALID,135,VALID,0,
2010-08-23, 00:43:04,VALID,916.403,VALID,0,VALID,95.6205,VALID,0,VALID,20.4423,VALID,135,VALID,0,
2010-08-23, 00:44:04,VALID,916.401,VALID,0,VALID,95.5443,VALID,0,VALID,20.4228,VALID,135,VALID,0,
2010-08-23, 00:45:04,VALID,916.399,VALID,0,VALID,95.3994,VALID,0,VALID,20.4228,VALID,135,VALID,0.355859,
2010-08-23, 00:46:04,VALID,916.423,VALID,0,VALID,95.2317,VALID,0,VALID,20.4033,VALID,135,VALID,0.251563,
2010-08-23, 00:47:04,VALID,916.447,VALID,0,VALID,94.8887,VALID,0,VALID,20.3643,VALID,135,VALID,0.24375,
2010-08-23, 00:48:04,VALID,916.436,VALID,0,VALID,94.6752,VALID,0,VALID,20.3253,VALID,135,VALID,0.282422,
2010-08-23, 00:49:04,VALID,916.44,VALID,0,VALID,94.9725,VALID,0,VALID,20.3448,VALID,135,VALID,0.414453,
2010-08-23, 00:50:04,VALID,916.436,VALID,0,VALID,95.1479,VALID,0,VALID,20.3253,VALID,135,VALID,0.420312,
2010-08-23, 00:51:04,VALID,916.466,VALID,0,VALID,95.2622,VALID,0,VALID,20.3058,VALID,135,VALID,0.225,
2010-08-23, 00:52:04,VALID,916.481,VALID,0,VALID,95.3613,VALID,0,VALID,20.2863,VALID,135,VALID,0.342969,
2010-08-23, 00:53:04,VALID,916.499,VALID,0,VALID,95.3003,VALID,0,VALID,20.2473,VALID,135,VALID,0.246875,
2010-08-23, 00:54:04,VALID,916.487,VALID,0,VALID,95.3918,VALID,0,VALID,20.2473,VALID,135,VALID,0.228125,
2010-08-23, 00:55:04,VALID,916.489,VALID,0,VALID,95.3156,VALID,0,VALID,20.2278,VALID,135,VALID,0.0851562,
2010-08-23, 00:56:04,VALID,916.47,VALID,0,VALID,95.3842,VALID,0.107441,VALID,20.2083,VALID,135,VALID,0.23125,
2010-08-23, 00:57:04,VALID,916.435,VALID,0,VALID,95.3994,VALID,0.107441,VALID,20.2083,VALID,135,VALID,0.249609,
2010-08-23, 00:58:04,VALID,916.432,VALID,0,VALID,95.5138,VALID,0,VALID,20.1678,VALID,135,VALID,0.303516,
2010-08-23, 00:59:04,VALID,916.44,VALID,0,VALID,95.6434,VALID,0,VALID,20.1693,VALID,135,VALID,0.314453,
2010-08-23, 01:00:04,VALID,916.427,VALID,0,VALID,95.7425,VALID,0,VALID,20.1888,VALID,135,VALID,0.322266,
2010-08-23, 01:01:04,VALID,916.416,VALID,0,VALID,95.8263,VALID,0,VALID,20.1888,VALID,135,VALID,0.239063,
2010-08-23, 01:02:04,VALID,916.388,VALID,0,VALID,95.9178,VALID,0.107441,VALID,20.1483,VALID,135,VALID,0.0613281,
2010-08-23, 01:03:04,VALID,916.426,VALID,0,VALID,95.9483,VALID,0.107441,VALID,20.1888,VALID,135,VALID,0.23125,
2010-08-23, 01:04:04,VALID,916.416,VALID,0,VALID,95.9941,VALID,0,VALID,20.1678,VALID,135,VALID,0.377344,
2010-08-23, 01:05:04,VALID,916.383,VALID,0,VALID,95.9788,VALID,0,VALID,20.2083,VALID,135,VALID,0.338672,
2010-08-23, 01:06:04,VALID,916.376,VALID,0,VALID,95.9331,VALID,0.107441,VALID,20.2068,VALID,135,VALID,0.461719,
2010-08-23, 01:07:04,VALID,916.403,VALID,0,VALID,95.9178,VALID,0,VALID,20.1678,VALID,135,VALID,0.540234,
2010-08-23, 01:08:04,VALID,916.39,VALID,0,VALID,95.8645,VALID,0,VALID,20.1873,VALID,135,VALID,0.723047,
2010-08-23, 01:09:04,VALID,916.367,VALID,0,VALID,95.8263,VALID,0,VALID,20.1873,VALID,135,VALID,0.774609,
2010-08-23, 01:10:04,VALID,916.354,VALID,0,VALID,95.7501,VALID,0.107441,VALID,20.1873,VALID,135,VALID,0.858203,
2010-08-23, 01:11:04,VALID,916.347,VALID,0,VALID,95.6434,VALID,0,VALID,20.1888,VALID,135,VALID,0.951953,
2010-08-23, 01:12:04,VALID,916.346,VALID,0,VALID,95.4604,VALID,0,VALID,20.1693,VALID,135,VALID,0.918359,
2010-08-23, 01:13:04,VALID,916.35,VALID,0,VALID,95.3842,VALID,0,VALID,20.1483,VALID,135,VALID,0.857422,
2010-08-23, 01:14:04,VALID,916.367,VALID,0,VALID,95.3766,VALID,0.107441,VALID,20.1498,VALID,135,VALID,0.846094,
2010-08-23, 01:15:04,VALID,916.335,VALID,0,VALID,95.3918,VALID,0,VALID,20.1303,VALID,135,VALID,0.776953,
2010-08-23, 01:16:04,VALID,916.308,VALID,0,VALID,95.3766,VALID,0.107441,VALID,20.1288,VALID,135,VALID,0.617188,
2010-08-23, 01:17:04,VALID,916.319,VALID,0,VALID,95.3537,VALID,0.107441,VALID,20.1693,VALID,135,VALID,0.683203,
2010-08-23, 01:18:04,VALID,916.289,VALID,0,VALID,95.3079,VALID,0.107441,VALID,20.1288,VALID,135,VALID,0.698828,
2010-08-23, 01:19:04,VALID,916.305,VALID,0,VALID,95.247,VALID,0,VALID,20.1303,VALID,135,VALID,0.851172,
2010-08-23, 01:20:04,VALID,916.292,VALID,0,VALID,95.2241,VALID,0,VALID,20.1093,VALID,135,VALID,0.870313,
2010-08-23, 01:21:04,VALID,916.335,VALID,0,VALID,95.3003,VALID,0.107441,VALID,20.1303,VALID,135,VALID,0.954297,
2010-08-23, 01:22:04,VALID,916.322,VALID,0,VALID,95.2775,VALID,0.107441,VALID,20.1288,VALID,135,VALID,0.828906,
2010-08-23, 01:23:04,VALID,916.32,VALID,0,VALID,95.1783,VALID,0,VALID,20.1108,VALID,135,VALID,0.652734,
2010-08-23, 01:24:04,VALID,916.295,VALID,0,VALID,95.125,VALID,0,VALID,20.0703,VALID,135,VALID,0.839063,
2010-08-23, 01:25:04,VALID,916.298,VALID,0,VALID,95.186,VALID,0.107441,VALID,20.0913,VALID,135,VALID,0.869531,
2010-08-23, 01:26:04,VALID,916.262,VALID,0,VALID,95.3079,VALID,0.107441,VALID,20.0913,VALID,135,VALID,0.959375,
2010-08-23, 01:27:04,VALID,916.269,VALID,0,VALID,95.4147,VALID,0,VALID,20.0913,VALID,135,VALID,0.972656,
2010-08-23, 01:28:04,VALID,916.23,VALID,0,VALID,95.4604,VALID,0,VALID,20.0913,VALID,135,VALID,1.05586,
2010-08-23, 01:29:04,VALID,916.206,VALID,0,VALID,95.468,VALID,0.107441,VALID,20.0898,VALID,135,VALID,0.902734,
2010-08-23, 01:30:04,VALID,916.22,VALID,0,VALID,95.3308,VALID,0,VALID,20.0703,VALID,135,VALID,0.662109,
2010-08-23, 01:31:04,VALID,916.218,VALID,0,VALID,95.3232,VALID,0.107441,VALID,20.0718,VALID,135,VALID,0.716797,
2010-08-23, 01:32:04,VALID,916.235,VALID,0,VALID,95.4452,VALID,0.107441,VALID,20.0718,VALID,135,VALID,0.498047,
2010-08-23, 01:33:04,VALID,916.201,VALID,0,VALID,95.468,VALID,0,VALID,20.0313,VALID,135,VALID,0.374609,
2010-08-23, 01:34:04,VALID,916.231,VALID,0,VALID,95.4147,VALID,0.107441,VALID,20.0328,VALID,135,VALID,0.282813,
2010-08-23, 01:35:04,VALID,916.236,VALID,0,VALID,95.4071,VALID,0,VALID,20.0133,VALID,135,VALID,0,
2010-08-23, 01:36:04,VALID,916.215,VALID,0,VALID,95.4223,VALID,0,VALID,20.0328,VALID,135,VALID,0,
2010-08-23, 01:37:04,VALID,916.213,VALID,0,VALID,95.4375,VALID,0.107441,VALID,20.0328,VALID,135,VALID,0,
2010-08-23, 01:38:04,VALID,916.188,VALID,0,VALID,95.3994,VALID,0.107441,VALID,20.0328,VALID,135,VALID,0,
2010-08-23, 01:39:04,VALID,916.174,VALID,0,VALID,95.3461,VALID,0,VALID,20.0523,VALID,135,VALID,0,
2010-08-23, 01:40:04,VALID,916.158,VALID,0,VALID,94.9344,VALID,0.107441,VALID,19.9938,VALID,135,VALID,0,
2010-08-23, 01:41:04,VALID,916.145,VALID,0,VALID,94.3398,VALID,0.107441,VALID,19.8948,VALID,135,VALID,0,
2010-08-23, 01:42:04,VALID,916.163,VALID,0,VALID,94.0501,VALID,0.107441,VALID,19.8963,VALID,135,VALID,0,
2010-08-23, 01:43:04,VALID,916.177,VALID,0,VALID,94.3169,VALID,0,VALID,19.8558,VALID,135,VALID,0,
2010-08-23, 01:44:04,VALID,916.176,VALID,0,VALID,94.881,VALID,0.107441,VALID,19.9353,VALID,135,VALID,0,
2010-08-23, 01:45:04,VALID,916.2,VALID,0,VALID,94.8124,VALID,0,VALID,19.8753,VALID,135,VALID,0.110547,
2010-08-23, 01:46:04,VALID,916.178,VALID,0,VALID,94.8124,VALID,0.107441,VALID,19.8768,VALID,135,VALID,0,
2010-08-23, 01:47:04,VALID,916.197,VALID,0,VALID,94.9192,VALID,0.107441,VALID,19.8573,VALID,134,VALID,0,
2010-08-23, 01:48:04,VALID,916.187,VALID,0,VALID,94.8429,VALID,0,VALID,19.8168,VALID,135,VALID,0,
2010-08-23, 01:49:04,VALID,916.172,VALID,0,VALID,94.7438,VALID,0.107441,VALID,19.7793,VALID,135,VALID,0,
2010-08-23, 01:50:04,VALID,916.187,VALID,0,VALID,94.7743,VALID,0.107441,VALID,19.7388,VALID,135,VALID,0,
2010-08-23, 01:51:04,VALID,916.142,VALID,0,VALID,94.9954,VALID,0,VALID,19.7193,VALID,134,VALID,0,
2010-08-23, 01:52:04,VALID,916.099,VALID,0,VALID,95.2622,VALID,0,VALID,19.7403,VALID,135,VALID,0,
2010-08-23, 01:53:04,VALID,916.117,VALID,0,VALID,95.1174,VALID,0.107441,VALID,19.6803,VALID,134,VALID,0.35625,
2010-08-23, 01:54:04,VALID,916.064,VALID,0,VALID,95.247,VALID,0.107441,VALID,19.6818,VALID,135,VALID,0.530469,
2010-08-23, 01:55:04,VALID,916.052,VALID,0,VALID,95.5062,VALID,0,VALID,19.7013,VALID,135,VALID,0.466406,
2010-08-23, 01:56:04,VALID,916.082,VALID,0,VALID,95.5824,VALID,0,VALID,19.6998,VALID,135,VALID,0.366016,
2010-08-23, 01:57:04,VALID,916.044,VALID,0,VALID,95.7196,VALID,0,VALID,19.7403,VALID,135,VALID,0.366797,
2010-08-23, 01:58:04,VALID,916.061,VALID,0,VALID,95.773,VALID,0.107441,VALID,19.7598,VALID,135,VALID,0.258594,
2010-08-23, 01:59:04,VALID,916.045,VALID,0,VALID,95.8416,VALID,0,VALID,19.8183,VALID,134,VALID,0.512109,
2010-08-23, 02:00:04,VALID,916.037,VALID,0,VALID,95.7501,VALID,0.107441,VALID,19.8573,VALID,135,VALID,0.767969,
2010-08-23, 02:01:04,VALID,916.023,VALID,0,VALID,95.4604,VALID,0,VALID,19.8963,VALID,135,VALID,0.516797,
2010-08-23, 02:02:04,VALID,915.992,VALID,0,VALID,95.0869,VALID,0,VALID,19.9158,VALID,135,VALID,0.597266,
2010-08-23, 02:03:04,VALID,915.953,VALID,0,VALID,94.7591,VALID,0.107441,VALID,19.9548,VALID,135,VALID,0.855469,
2010-08-23, 02:04:04,VALID,915.971,VALID,0,VALID,94.5837,VALID,0.107441,VALID,20.0133,VALID,135,VALID,0.633594,
2010-08-23, 02:05:04,VALID,915.935,VALID,0,VALID,94.2788,VALID,0,VALID,20.0328,VALID,135,VALID,0.669531,
2010-08-23, 02:06:04,VALID,915.95,VALID,0,VALID,94.2483,VALID,0,VALID,20.0718,VALID,135,VALID,0.798047,
2010-08-23, 02:07:04,VALID,915.921,VALID,0,VALID,94.1721,VALID,0.107441,VALID,20.0898,VALID,135,VALID,0.573438,
2010-08-23, 02:08:04,VALID,915.983,VALID,0,VALID,94.0958,VALID,0,VALID,20.1288,VALID,135,VALID,0.486719,
2010-08-23, 02:09:04,VALID,915.941,VALID,0,VALID,93.9586,VALID,0.107441,VALID,20.2278,VALID,135,VALID,0.29375,
2010-08-23, 02:10:04,VALID,915.925,VALID,0,VALID,93.646,VALID,0,VALID,20.2473,VALID,135,VALID,0.279297,
2010-08-23, 02:11:04,VALID,915.937,VALID,0,VALID,93.5851,VALID,0.107441,VALID,20.2653,VALID,135,VALID,0.190234,
2010-08-23, 02:12:04,VALID,915.909,VALID,0,VALID,93.1963,VALID,0.107441,VALID,20.3043,VALID,135,VALID,0.046875,
2010-08-23, 02:13:04,VALID,915.937,VALID,0,VALID,92.8989,VALID,0.107441,VALID,20.3253,VALID,135,VALID,0.476563,
2010-08-23, 02:14:04,VALID,915.931,VALID,0,VALID,93.0362,VALID,0,VALID,20.3238,VALID,135,VALID,0.251953,
2010-08-23, 02:15:04,VALID,915.92,VALID,0,VALID,92.9828,VALID,0,VALID,20.3433,VALID,135,VALID,0.253906,
2010-08-23, 02:16:04,VALID,915.957,VALID,0,VALID,92.9371,VALID,0.107441,VALID,20.3838,VALID,135,VALID,0.218359,
2010-08-23, 02:17:04,VALID,915.981,VALID,0,VALID,92.8227,VALID,0.107441,VALID,20.4018,VALID,135,VALID,0.304297,
2010-08-23, 02:18:04,VALID,915.977,VALID,0,VALID,92.5788,VALID,0.107441,VALID,20.4213,VALID,135,VALID,0.785547,
2010-08-23, 02:19:04,VALID,915.977,VALID,0,VALID,92.5788,VALID,0,VALID,20.4408,VALID,135,VALID,0.808594,
2010-08-23, 02:20:04,VALID,915.987,VALID,0,VALID,92.5406,VALID,0,VALID,20.4213,VALID,135,VALID,0.830469,
2010-08-23, 02:21:04,VALID,915.975,VALID,0,VALID,92.1823,VALID,0,VALID,20.4813,VALID,135,VALID,1.19766,
2010-08-23, 02:22:04,VALID,915.961,VALID,0,VALID,91.7935,VALID,0,VALID,20.5383,VALID,134,VALID,1.08516,
2010-08-23, 02:23:04,VALID,915.974,VALID,0,VALID,91.6945,VALID,0.107441,VALID,20.5578,VALID,135,VALID,1.2793,
2010-08-23, 02:24:04,VALID,915.976,VALID,0,VALID,91.4581,VALID,0,VALID,20.6179,VALID,135,VALID,0.981641,
2010-08-23, 02:25:04,VALID,915.967,VALID,0,VALID,91.1989,VALID,0.107441,VALID,20.6569,VALID,135,VALID,0.586328,
2010-08-23, 02:26:04,VALID,915.991,VALID,0,VALID,91.0617,VALID,0.107441,VALID,20.6553,VALID,135,VALID,0.489062,
2010-08-23, 02:27:04,VALID,915.941,VALID,0,VALID,90.9931,VALID,0.107441,VALID,20.7154,VALID,135,VALID,0.421875,
2010-08-23, 02:28:04,VALID,915.948,VALID,0,VALID,91.016,VALID,0,VALID,20.7349,VALID,135,VALID,0.647266,
2010-08-23, 02:29:04,VALID,915.946,VALID,0,VALID,90.9778,VALID,0,VALID,20.7544,VALID,135,VALID,0.446484,
2010-08-23, 02:30:04,VALID,915.916,VALID,0,VALID,91.0541,VALID,0.107441,VALID,20.7138,VALID,135,VALID,0.277734,
2010-08-23, 02:31:04,VALID,915.922,VALID,0,VALID,91.0541,VALID,0.107441,VALID,20.7138,VALID,135,VALID,0.290625,
2010-08-23, 02:32:04,VALID,915.903,VALID,0,VALID,91.1608,VALID,0.107441,VALID,20.7138,VALID,135,VALID,0.282031,
2010-08-23, 02:33:04,VALID,915.9,VALID,0,VALID,91.298,VALID,0,VALID,20.6959,VALID,135,VALID,0.48125,
2010-08-23, 02:34:04,VALID,915.931,VALID,0,VALID,91.359,VALID,0.107441,VALID,20.6748,VALID,135,VALID,0.731641,
2010-08-23, 02:35:04,VALID,915.914,VALID,0,VALID,91.5648,VALID,0,VALID,20.6764,VALID,135,VALID,0.842969,
2010-08-23, 02:36:04,VALID,915.933,VALID,0,VALID,91.8927,VALID,0,VALID,20.6374,VALID,135,VALID,1.02578,
2010-08-23, 02:37:04,VALID,915.933,VALID,0,VALID,92.411,VALID,0,VALID,20.5188,VALID,136,VALID,0.631641,
2010-08-23, 02:38:04,VALID,915.936,VALID,0,VALID,92.8608,VALID,0,VALID,20.4603,VALID,136,VALID,0.401563,
2010-08-23, 02:39:04,VALID,915.895,VALID,0,VALID,93.1429,VALID,0,VALID,20.4018,VALID,136,VALID,0.328516,
2010-08-23, 02:40:04,VALID,915.904,VALID,0,VALID,92.9371,VALID,0.107441,VALID,20.3643,VALID,136,VALID,0.376953,
2010-08-23, 02:41:04,VALID,915.897,VALID,0,VALID,93.2572,VALID,0,VALID,20.3074,VALID,136,VALID,0.600391,
2010-08-23, 02:42:04,VALID,915.878,VALID,0,VALID,93.7985,VALID,0,VALID,20.2684,VALID,136,VALID,0.161719,
2010-08-23, 02:43:04,VALID,915.912,VALID,0,VALID,93.8824,VALID,0,VALID,20.1903,VALID,136,VALID,0.571484,
2010-08-23, 02:44:04,VALID,915.891,VALID,0,VALID,94.4008,VALID,0,VALID,20.1498,VALID,136,VALID,0.872266,
2010-08-23, 02:45:04,VALID,915.877,VALID,0,VALID,94.6447,VALID,0,VALID,20.1318,VALID,136,VALID,0.701563,
2010-08-23, 02:46:04,VALID,915.909,VALID,0,VALID,94.7743,VALID,0,VALID,20.0928,VALID,136,VALID,0.714844,
2010-08-23, 02:47:04,VALID,915.919,VALID,0,VALID,94.7972,VALID,0,VALID,20.0523,VALID,136,VALID,0.5375,
2010-08-23, 02:48:04,VALID,915.917,VALID,0,VALID,94.8429,VALID,0,VALID,20.0523,VALID,136,VALID,0.416406,
2010-08-23, 02:49:04,VALID,915.946,VALID,0,VALID,94.7743,VALID,0,VALID,20.0328,VALID,136,VALID,0.123828,
2010-08-23, 02:50:04,VALID,915.937,VALID,0,VALID,94.8048,VALID,0,VALID,20.0328,VALID,136,VALID,0.0125,
2010-08-23, 02:51:04,VALID,915.907,VALID,0,VALID,94.9268,VALID,0,VALID,20.0328,VALID,136,VALID,0,
2010-08-23, 02:52:04,VALID,915.9,VALID,0,VALID,94.9649,VALID,0,VALID,20.0928,VALID,136,VALID,0,
2010-08-23, 02:53:04,VALID,915.916,VALID,0,VALID,94.9725,VALID,0,VALID,20.0718,VALID,136,VALID,0,
2010-08-23, 02:54:04,VALID,915.884,VALID,0,VALID,94.9878,VALID,0,VALID,20.0913,VALID,136,VALID,0,
2010-08-23, 02:55:04,VALID,915.924,VALID,0,VALID,94.9725,VALID,0,VALID,20.1318,VALID,136,VALID,0,
2010-08-23, 02:56:04,VALID,915.928,VALID,0,VALID,94.9268,VALID,0,VALID,20.1303,VALID,136,VALID,0,
2010-08-23, 02:57:04,VALID,915.929,VALID,0,VALID,94.8734,VALID,0,VALID,20.1693,VALID,136,VALID,0.247656,
2010-08-23, 02:58:04,VALID,915.912,VALID,0,VALID,94.7286,VALID,0,VALID,20.2278,VALID,136,VALID,0.0964844,
2010-08-23, 02:59:04,VALID,915.929,VALID,0,VALID,94.233,VALID,0,VALID,20.2684,VALID,136,VALID,0.189844,
2010-08-23, 03:00:04,VALID,915.932,VALID,0,VALID,93.8824,VALID,0,VALID,20.3074,VALID,136,VALID,0.510547,
2010-08-23, 03:01:04,VALID,915.933,VALID,0,VALID,93.8138,VALID,0,VALID,20.3253,VALID,136,VALID,0.190625,
2010-08-23, 03:02:04,VALID,915.922,VALID,0,VALID,93.4936,VALID,0,VALID,20.3643,VALID,136,VALID,0,
2010-08-23, 03:03:04,VALID,915.895,VALID,0,VALID,93.1658,VALID,0,VALID,20.4244,VALID,136,VALID,0,
2010-08-23, 03:04:04,VALID,915.867,VALID,0,VALID,92.9752,VALID,0,VALID,20.4423,VALID,136,VALID,0,
2010-08-23, 03:05:04,VALID,915.89,VALID,0,VALID,92.8075,VALID,0,VALID,20.4829,VALID,136,VALID,0.237891,
2010-08-23, 03:06:04,VALID,915.866,VALID,0,VALID,92.5711,VALID,0,VALID,20.4829,VALID,136,VALID,0.0660156,
2010-08-23, 03:07:04,VALID,915.85,VALID,0,VALID,92.5406,VALID,0,VALID,20.4813,VALID,136,VALID,0,
2010-08-23, 03:08:04,VALID,915.841,VALID,0,VALID,92.5178,VALID,0,VALID,20.5009,VALID,136,VALID,0,
2010-08-23, 03:09:04,VALID,915.854,VALID,0,VALID,92.6245,VALID,0,VALID,20.5009,VALID,136,VALID,0,
2010-08-23, 03:10:04,VALID,915.825,VALID,0,VALID,92.6016,VALID,0,VALID,20.5414,VALID,136,VALID,0.0304688,
2010-08-23, 03:11:04,VALID,915.844,VALID,0,VALID,92.655,VALID,0,VALID,20.5009,VALID,136,VALID,0.401563,
2010-08-23, 03:12:04,VALID,915.833,VALID,0,VALID,92.8227,VALID,0,VALID,20.5414,VALID,136,VALID,0.358984,
2010-08-23, 03:13:04,VALID,915.865,VALID,0,VALID,92.5788,VALID,0,VALID,20.5009,VALID,136,VALID,0.3375,
2010-08-23, 03:14:04,VALID,915.849,VALID,0,VALID,92.7389,VALID,0,VALID,20.5024,VALID,136,VALID,0.536328,
2010-08-23, 03:15:04,VALID,915.845,VALID,0,VALID,92.9218,VALID,0,VALID,20.5024,VALID,136,VALID,0.502344,
2010-08-23, 03:16:04,VALID,915.834,VALID,0,VALID,92.9294,VALID,0,VALID,20.5204,VALID,136,VALID,0.345703,
2010-08-23, 03:17:04,VALID,915.804,VALID,0,VALID,92.7312,VALID,0,VALID,20.5399,VALID,136,VALID,0.335938,
2010-08-23, 03:18:04,VALID,915.788,VALID,0,VALID,92.5788,VALID,0,VALID,20.5999,VALID,136,VALID,0.532422,
2010-08-23, 03:19:04,VALID,915.763,VALID,0,VALID,92.3043,VALID,0,VALID,20.6179,VALID,136,VALID,0.290625,
2010-08-23, 03:20:04,VALID,915.773,VALID,0,VALID,92.4187,VALID,0,VALID,20.6179,VALID,136,VALID,0.296484,
2010-08-23, 03:21:04,VALID,915.778,VALID,0,VALID,92.3577,VALID,0,VALID,20.6569,VALID,136,VALID,0.180078,
2010-08-23, 03:22:04,VALID,915.784,VALID,0,VALID,92.0146,VALID,0,VALID,20.678,VALID,136,VALID,0.317187,
2010-08-23, 03:23:04,VALID,915.799,VALID,0,VALID,91.7935,VALID,0,VALID,20.6764,VALID,136,VALID,0.378906,
2010-08-23, 03:24:04,VALID,915.794,VALID,0,VALID,91.5953,VALID,0,VALID,20.678,VALID,136,VALID,0.343359,
2010-08-23, 03:25:04,VALID,915.798,VALID,0,VALID,91.9308,VALID,0,VALID,20.6194,VALID,136,VALID,0.355469,
2010-08-23, 03:26:04,VALID,915.797,VALID,0,VALID,92.3806,VALID,0,VALID,20.5789,VALID,136,VALID,0.0855469,
2010-08-23, 03:27:04,VALID,915.793,VALID,0,VALID,92.5559,VALID,0,VALID,20.5594,VALID,136,VALID,0,
2010-08-23, 03:28:04,VALID,915.788,VALID,0,VALID,92.5025,VALID,0.107441,VALID,20.5383,VALID,136,VALID,0.130078,
2010-08-23, 03:29:04,VALID,915.776,VALID,0,VALID,91.9613,VALID,0,VALID,20.5204,VALID,136,VALID,0.407422,
2010-08-23, 03:30:04,VALID,915.736,VALID,0,VALID,91.4276,VALID,0.107441,VALID,20.4603,VALID,136,VALID,0.258203,
2010-08-23, 03:31:04,VALID,915.751,VALID,0,VALID,91.6487,VALID,0,VALID,20.3628,VALID,136,VALID,0.457422,
2010-08-23, 03:32:04,VALID,915.763,VALID,0,VALID,92.838,VALID,0.107441,VALID,20.3043,VALID,136,VALID,0.401953,
2010-08-23, 03:33:04,VALID,915.77,VALID,0,VALID,93.5851,VALID,0.107441,VALID,20.2848,VALID,136,VALID,0.475391,
2010-08-23, 03:34:04,VALID,915.773,VALID,0,VALID,93.0972,VALID,0,VALID,20.2653,VALID,136,VALID,0.612109,
2010-08-23, 03:35:04,VALID,915.759,VALID,0,VALID,93.5927,VALID,0,VALID,20.2458,VALID,136,VALID,0.855859,
2010-08-23, 03:36:04,VALID,915.753,VALID,0,VALID,93.7299,VALID,0.107441,VALID,20.2668,VALID,136,VALID,0.882422,
2010-08-23, 03:37:04,VALID,915.728,VALID,0,VALID,93.7909,VALID,0.107441,VALID,20.2263,VALID,136,VALID,0.771484,
2010-08-23, 03:38:04,VALID,915.765,VALID,0,VALID,93.8443,VALID,0,VALID,20.2263,VALID,136,VALID,0.641797,
2010-08-23, 03:39:04,VALID,915.746,VALID,0,VALID,93.4707,VALID,0.107441,VALID,20.2263,VALID,136,VALID,0.898438,
2010-08-23, 03:40:04,VALID,915.751,VALID,0,VALID,93.8824,VALID,0,VALID,20.2458,VALID,136,VALID,0.976953,
2010-08-23, 03:41:04,VALID,915.747,VALID,0,VALID,93.5698,VALID,0,VALID,20.2668,VALID,136,VALID,0.598047,
2010-08-23, 03:42:04,VALID,915.745,VALID,0,VALID,93.4478,VALID,0,VALID,20.3058,VALID,136,VALID,0.749219,